Time,TemperatureF,DewpointF,PressureIn,WindDirection,WindDirectionDegrees,WindSpeedMPH,WindSpeedGustMPH,Humidity,HourlyPrecipIn,Conditions,Clouds,dailyrainin,SoftwareType,DateUTC
2013-07-21 00:08:00,49.3,42.1,29.97,East,90,2.2,-999.0,76,-99.99,,,0.00,Acu-Link.com,2013-07-21 06:08:00,
2013-07-21 00:24:00,49.1,42.2,29.97,East,90,2.2,-999.0,77,-99.99,,,0.00,Acu-Link.com,2013-07-21 06:24:00,
2013-07-21 00:39:00,49.6,42.4,29.97,East,90,1.7,-999.0,76,-99.99,,,0.00,Acu-Link.com,2013-07-21 06:39:00,
2013-07-21 00:54:00,50.0,41.3,29.96,East,90,2.2,-999.0,72,-99.99,,,0.00,Acu-Link.com,2013-07-21 06:54:00,
2013-07-21 01:09:00,50.0,38.3,29.96,East,90,2.2,-999.0,64,-99.99,,,0.00,Acu-Link.com,2013-07-21 07:09:00,
2013-07-21 01:24:00,49.5,35.3,29.96,East,90,1.7,-999.0,58,-99.99,,,0.00,Acu-Link.com,2013-07-21 07:24:00,
2013-07-21 01:39:00,50.4,34.4,29.96,East,90,0.0,-999.0,54,-99.99,,,0.00,Acu-Link.com,2013-07-21 07:39:00,
2013-07-21 01:54:00,50.9,29.8,29.95,East,90,1.1,-999.0,44,-99.99,,,0.00,Acu-Link.com,2013-07-21 07:54:00,
2013-07-21 02:11:00,52.3,26.8,29.95,East,90,1.7,-999.0,37,-99.99,,,0.00,Acu-Link.com,2013-07-21 08:11:00,
2013-07-21 02:26:00,52.2,26.1,29.95,East,90,2.7,-999.0,36,-99.99,,,0.00,Acu-Link.com,2013-07-21 08:26:00,
2013-07-21 02:41:00,53.1,26.9,29.95,East,90,2.2,-999.0,36,-99.99,,,0.00,Acu-Link.com,2013-07-21 08:41:00,
2013-07-21 02:57:00,52.0,27.2,29.95,East,90,2.2,-999.0,38,-99.99,,,0.00,Acu-Link.com,2013-07-21 08:57:00,
2013-07-21 03:12:00,51.6,26.8,29.94,East,90,1.7,-999.0,38,-99.99,,,0.00,Acu-Link.com,2013-07-21 09:12:00,
2013-07-21 03:27:00,52.2,26.7,29.94,East,90,0.0,-999.0,37,-99.99,,,0.00,Acu-Link.com,2013-07-21 09:27:00,
2013-07-21 03:42:00,52.5,26.3,29.94,East,90,2.2,-999.0,36,-99.99,,,0.00,Acu-Link.com,2013-07-21 09:42:00,
2013-07-21 03:57:00,52.0,27.2,29.93,East,90,2.2,-999.0,38,-99.99,,,0.00,Acu-Link.com,2013-07-21 09:57:00,
2013-07-21 04:12:00,51.6,28.1,29.93,East,90,2.2,-999.0,40,-99.99,,,0.00,Acu-Link.com,2013-07-21 10:12:00,
2013-07-21 04:27:00,51.3,28.4,29.93,East,90,2.2,-999.0,41,-99.99,,,0.00,Acu-Link.com,2013-07-21 10:27:00,
2013-07-21 04:42:00,50.2,29.1,29.94,East,90,1.7,-999.0,44,-99.99,,,0.00,Acu-Link.com,2013-07-21 10:42:00,
2013-07-21 04:58:00,50.0,29.5,29.94,East,90,2.2,-999.0,45,-99.99,,,0.00,Acu-Link.com,2013-07-21 10:58:00,
2013-07-21 05:13:00,48.9,29.6,29.94,East,90,2.2,-999.0,47,-99.99,,,0.00,Acu-Link.com,2013-07-21 11:13:00,
2013-07-21 05:29:00,48.6,29.8,29.94,East,90,2.2,-999.0,48,-99.99,,,0.00,Acu-Link.com,2013-07-21 11:29:00,
2013-07-21 05:44:00,48.0,29.8,29.95,East,90,1.1,-999.0,49,-99.99,,,0.00,Acu-Link.com,2013-07-21 11:44:00,
2013-07-21 05:59:00,47.7,29.5,29.95,East,90,1.1,-999.0,49,-99.99,,,0.00,Acu-Link.com,2013-07-21 11:59:00,
2013-07-21 06:14:00,48.0,30.3,29.95,East,90,1.7,-999.0,50,-99.99,,,0.00,Acu-Link.com,2013-07-21 12:14:00,
2013-07-21 06:30:00,48.2,31.4,29.96,East,90,0.0,-999.0,52,-99.99,,,0.00,Acu-Link.com,2013-07-21 12:30:00,
2013-07-21 06:45:00,49.5,32.1,29.96,East,90,0.0,-999.0,51,-99.99,,,0.00,Acu-Link.com,2013-07-21 12:45:00,
2013-07-21 07:00:00,49.8,33.4,29.97,East,90,2.2,-999.0,53,-99.99,,,0.00,Acu-Link.com,2013-07-21 13:00:00,
2013-07-21 07:15:00,51.8,35.2,29.97,East,90,1.1,-999.0,53,-99.99,,,0.00,Acu-Link.com,2013-07-21 13:15:00,
2013-07-21 07:30:00,52.0,35.9,29.99,East,90,0.0,-999.0,54,-99.99,,,0.00,Acu-Link.com,2013-07-21 13:30:00,
2013-07-21 07:45:00,53.8,38.0,29.99,East,90,2.2,-999.0,55,-99.99,,,0.00,Acu-Link.com,2013-07-21 13:45:00,
2013-07-21 08:00:00,55.6,38.3,29.99,East,90,2.2,-999.0,52,-99.99,,,0.00,Acu-Link.com,2013-07-21 14:00:00,
2013-07-21 08:15:00,57.7,38.1,29.99,East,90,2.7,-999.0,48,-99.99,,,0.00,Acu-Link.com,2013-07-21 14:15:00,
2013-07-21 08:30:00,60.6,39.1,29.99,East,90,1.7,-999.0,45,-99.99,,,0.00,Acu-Link.com,2013-07-21 14:30:00,
2013-07-21 08:46:00,63.7,38.9,30.00,East,90,2.7,-999.0,40,-99.99,,,0.00,Acu-Link.com,2013-07-21 14:46:00,
2013-07-21 09:01:00,66.4,38.6,30.00,East,90,4.7,-999.0,36,-99.99,,,0.00,Acu-Link.com,2013-07-21 15:01:00,
2013-07-21 09:16:00,65.3,39.7,30.00,East,90,3.2,-999.0,39,-99.99,,,0.00,Acu-Link.com,2013-07-21 15:16:00,
2013-07-21 09:31:00,67.3,39.4,30.00,East,90,2.7,-999.0,36,-99.99,,,0.00,Acu-Link.com,2013-07-21 15:31:00,
2013-07-21 09:46:00,67.8,39.9,30.00,East,90,3.7,-999.0,36,-99.99,,,0.00,Acu-Link.com,2013-07-21 15:46:00,
2013-07-21 10:01:00,70.3,37.4,30.00,NW,315,2.7,-999.0,30,-99.99,,,0.00,Acu-Link.com,2013-07-21 16:01:00,
2013-07-21 10:16:00,72.3,35.5,30.00,SSE,157,5.8,-999.0,26,-99.99,,,0.00,Acu-Link.com,2013-07-21 16:16:00,
2013-07-21 10:31:00,71.1,36.3,30.01,ESE,112,4.2,-999.0,28,-99.99,,,0.00,Acu-Link.com,2013-07-21 16:31:00,
2013-07-21 10:46:00,71.6,33.9,29.99,East,90,1.7,-999.0,25,-99.99,,,0.00,Acu-Link.com,2013-07-21 16:46:00,
2013-07-21 11:02:00,72.7,34.8,30.00,WSW,247,3.2,-999.0,25,-99.99,,,0.00,Acu-Link.com,2013-07-21 17:02:00,
2013-07-21 11:17:00,72.7,33.8,30.00,West,270,2.2,-999.0,24,-99.99,,,0.00,Acu-Link.com,2013-07-21 17:17:00,
2013-07-21 11:32:00,76.5,33.7,30.00,SW,225,4.2,-999.0,21,-99.99,,,0.00,Acu-Link.com,2013-07-21 17:32:00,
2013-07-21 11:47:00,76.1,32.1,30.00,West,270,4.2,-999.0,20,-99.99,,,0.00,Acu-Link.com,2013-07-21 17:47:00,
2013-07-21 12:02:00,75.0,33.6,30.00,NE,45,2.2,-999.0,22,-99.99,,,0.00,Acu-Link.com,2013-07-21 18:02:00,
2013-07-21 12:17:00,75.4,32.7,30.00,NNW,337,4.2,-999.0,21,-99.99,,,0.00,Acu-Link.com,2013-07-21 18:17:00,
2013-07-21 12:33:00,76.5,34.8,30.00,West,270,1.7,-999.0,22,-99.99,,,0.00,Acu-Link.com,2013-07-21 18:33:00,
2013-07-21 12:48:00,75.4,31.5,29.99,SW,225,3.7,-999.0,20,-99.99,,,0.00,Acu-Link.com,2013-07-21 18:48:00,
2013-07-21 13:03:00,76.6,33.7,29.99,West,270,3.7,-999.0,21,-99.99,,,0.00,Acu-Link.com,2013-07-21 19:03:00,
2013-07-21 13:18:00,75.7,31.8,29.99,NNW,337,4.2,-999.0,20,-99.99,,,0.00,Acu-Link.com,2013-07-21 19:18:00,
2013-07-21 13:33:00,74.1,29.2,29.99,East,90,4.2,-999.0,19,-99.99,,,0.00,Acu-Link.com,2013-07-21 19:33:00,
2013-07-21 13:48:00,78.6,31.5,29.98,WNW,292,2.7,-999.0,18,-99.99,,,0.00,Acu-Link.com,2013-07-21 19:48:00,
2013-07-21 14:03:00,77.0,31.6,29.98,WSW,247,5.8,-999.0,19,-99.99,,,0.00,Acu-Link.com,2013-07-21 20:03:00,
2013-07-21 14:18:00,75.0,29.9,29.98,WNW,292,5.3,-999.0,19,-99.99,,,0.00,Acu-Link.com,2013-07-21 20:18:00,
2013-07-21 14:33:00,77.4,30.6,29.98,ESE,112,4.7,-999.0,18,-99.99,,,0.00,Acu-Link.com,2013-07-21 20:33:00,
2013-07-21 14:49:00,74.3,29.4,29.98,West,270,3.7,-999.0,19,-99.99,,,0.00,Acu-Link.com,2013-07-21 20:49:00,
2013-07-21 15:04:00,77.0,30.2,29.98,SSW,202,4.2,-999.0,18,-99.99,,,0.00,Acu-Link.com,2013-07-21 21:04:00,
2013-07-21 15:19:00,76.3,31.0,29.98,SSW,202,8.3,-999.0,19,-99.99,,,0.00,Acu-Link.com,2013-07-21 21:19:00,
2013-07-21 15:34:00,78.6,28.7,29.97,ESE,112,8.9,-999.0,16,-99.99,,,0.00,Acu-Link.com,2013-07-21 21:34:00,
2013-07-21 15:49:00,79.2,27.6,29.96,West,270,2.7,-999.0,15,-99.99,,,0.00,Acu-Link.com,2013-07-21 21:49:00,
2013-07-21 16:04:00,77.0,24.2,29.96,SSE,157,3.7,-999.0,14,-99.99,,,0.00,Acu-Link.com,2013-07-21 22:04:00,
2013-07-21 16:19:00,78.3,26.8,29.95,West,270,5.3,-999.0,15,-99.99,,,0.00,Acu-Link.com,2013-07-21 22:19:00,
2013-07-21 16:34:00,73.2,24.3,29.96,ENE,67,2.7,-999.0,16,-99.99,,,0.00,Acu-Link.com,2013-07-21 22:34:00,
2013-07-21 16:49:00,75.4,24.5,29.95,South,180,8.9,-999.0,15,-99.99,,,0.00,Acu-Link.com,2013-07-21 22:49:00,
2013-07-21 17:05:00,75.2,25.9,29.95,WNW,292,2.2,-999.0,16,-99.99,,,0.00,Acu-Link.com,2013-07-21 23:05:00,
2013-07-21 17:20:00,77.5,26.2,29.95,ESE,112,2.2,-999.0,15,-99.99,,,0.00,Acu-Link.com,2013-07-21 23:20:00,
2013-07-21 17:35:00,74.1,25.0,29.94,ESE,112,1.7,-999.0,16,-99.99,,,0.00,Acu-Link.com,2013-07-21 23:35:00,
2013-07-21 17:50:00,76.8,25.7,29.95,NW,315,3.7,-999.0,15,-99.99,,,0.00,Acu-Link.com,2013-07-21 23:50:00,
2013-07-21 18:05:00,75.4,21.1,29.95,WSW,247,2.2,-999.0,13,-99.99,,,0.00,Acu-Link.com,2013-07-22 00:05:00,
2013-07-21 18:20:00,73.4,22.9,29.95,West,270,2.2,-999.0,15,-99.99,,,0.00,Acu-Link.com,2013-07-22 00:20:00,
2013-07-21 18:35:00,72.0,23.4,29.95,WNW,292,2.7,-999.0,16,-99.99,,,0.00,Acu-Link.com,2013-07-22 00:35:00,
2013-07-21 18:51:00,70.2,24.7,29.94,ESE,112,1.1,-999.0,18,-99.99,,,0.00,Acu-Link.com,2013-07-22 00:51:00,
2013-07-21 19:06:00,69.8,25.7,29.95,East,90,1.7,-999.0,19,-99.99,,,0.00,Acu-Link.com,2013-07-22 01:06:00,
2013-07-21 19:21:00,68.7,24.8,29.95,East,90,2.2,-999.0,19,-99.99,,,0.00,Acu-Link.com,2013-07-22 01:21:00,
2013-07-21 19:36:00,67.8,22.8,29.94,East,90,1.7,-999.0,18,-99.99,,,0.00,Acu-Link.com,2013-07-22 01:36:00,
2013-07-21 19:52:00,66.7,21.9,29.96,South,180,3.7,-999.0,18,-99.99,,,0.00,Acu-Link.com,2013-07-22 01:52:00,
2013-07-21 20:07:00,65.5,19.5,29.95,ESE,112,4.2,-999.0,17,-99.99,,,0.00,Acu-Link.com,2013-07-22 02:07:00,
2013-07-21 20:22:00,64.2,21.1,29.96,ESE,112,0.0,-999.0,19,-99.99,,,0.00,Acu-Link.com,2013-07-22 02:22:00,
2013-07-21 20:37:00,62.8,22.3,29.96,ESE,112,1.7,-999.0,21,-99.99,,,0.00,Acu-Link.com,2013-07-22 02:37:00,
2013-07-21 20:52:00,61.7,20.2,29.97,ESE,112,2.7,-999.0,20,-99.99,,,0.00,Acu-Link.com,2013-07-22 02:52:00,
2013-07-21 21:07:00,61.2,19.8,29.97,ESE,112,1.1,-999.0,20,-99.99,,,0.00,Acu-Link.com,2013-07-22 03:07:00,
2013-07-21 21:22:00,60.3,20.2,29.97,ESE,112,2.7,-999.0,21,-99.99,,,0.00,Acu-Link.com,2013-07-22 03:22:00,
2013-07-21 21:37:00,59.2,19.3,29.97,ESE,112,1.7,-999.0,21,-99.99,,,0.00,Acu-Link.com,2013-07-22 03:37:00,
2013-07-21 21:53:00,58.3,21.7,29.98,ESE,112,1.1,-999.0,24,-99.99,,,0.00,Acu-Link.com,2013-07-22 03:53:00,
2013-07-21 22:08:00,56.5,20.2,29.98,ESE,112,1.7,-999.0,24,-99.99,,,0.00,Acu-Link.com,2013-07-22 04:08:00,
2013-07-21 22:23:00,55.2,20.0,29.98,ESE,112,1.1,-999.0,25,-99.99,,,0.00,Acu-Link.com,2013-07-22 04:23:00,
2013-07-21 22:38:00,54.7,18.6,29.99,ESE,112,0.0,-999.0,24,-99.99,,,0.00,Acu-Link.com,2013-07-22 04:38:00,
2013-07-21 22:53:00,54.0,18.0,29.98,ESE,112,0.0,-999.0,24,-99.99,,,0.00,Acu-Link.com,2013-07-22 04:53:00,
2013-07-21 23:08:00,53.4,15.5,29.99,ESE,112,1.7,-999.0,22,-99.99,,,0.00,Acu-Link.com,2013-07-22 05:08:00,
2013-07-21 23:23:00,53.6,16.7,29.99,ESE,112,0.0,-999.0,23,-99.99,,,0.00,Acu-Link.com,2013-07-22 05:23:00,
2013-07-21 23:38:00,53.4,13.4,29.99,ESE,112,2.2,-999.0,20,-99.99,,,0.00,Acu-Link.com,2013-07-22 05:38:00,
2013-07-21 23:53:00,52.7,14.9,29.99,ESE,112,1.1,-999.0,22,-99.99,,,0.00,Acu-Link.com,2013-07-22 05:53:00,